Regional Weather Roundup
Issued by NWS State College, PA

Home | Current Version | Previous Version | Text Only | Print | Product List | Glossary Off
Versions: 1 2 3 4 5 6 7 8 9 10 11 12 13 14 15 16 17 18 19 20 21 22 23 24 25 26 27 28 29 30 31 32 33 34 35 36 37 38 39 40 41 42 43 44 45 46 47 48 49 50

859
ASUS41 KCTP 240010
RWRCTP

REGIONAL WEATHER ROUNDUP
NATIONAL WEATHER SERVICE STATE COLLEGE PA
700 PM EST THU FEB 23 2017

Note: "fair" indicates few or no clouds below 12,000 feet with no
significant weather and/or obstructions to visibility.

* = STATION THAT DOES NOT REPORT PRECIPITATION /E.G. RAIN...SNOW...ETC/
    THUNDER OR FOG.

PAZ002>004-007>009-013>016-020>023-029>032-240100-
WESTERN PENNSYLVANIA

CITY           SKY/WX    TMP DP  RH WIND       PRES   REMARKS
ERIE           PTCLDY    56  49  77 SW5       29.82S
MEADVILLE      PTCLDY    58  50  75 N6        29.82R
FRANKLIN*      MOCLDY    57  48  72 CALM      29.84R
NEW CASTLE     FAIR      59  52  77 CALM      29.82R
BEAVER COUNTY  NOT AVBL
BUTLER*        MOCLDY    61  52  72 W8        29.85R
PITTSBURGH INT MOCLDY    65  53  65 S3        29.82R
PITTSBURGH     PTCLDY    64  50  60 S8        29.82S
INDIANA*       MOCLDY    63  54  72 SW7       29.87R
LATROBE        MOCLDY    63  54  72 SW6       29.85R
WASHINGTON CO* PTCLDY    63  52  67 S5        29.84F
$$

PAZ004>006-010>012-017>019-024>028-033>037-041-042-045-046-049>053-240100-
CENTRAL PENNSYLVANIA

CITY           SKY/WX    TMP DP  RH WIND       PRES   REMARKS
BRADFORD       PTCLDY    56  51  84 CALM      29.85R
DUBOIS         MOCLDY    59  50  72 CALM      29.84R
CLEARFIELD       N/A    N/A N/A N/A MISG      29.85R
JOHNSTOWN      MOCLDY    59  51  75 SW6       29.86R
ALTOONA        CLEAR     64  51  62 SW8       29.86R
STATE COLLEGE  PTCLDY    64  50  59 NW5       29.84R
WILLIAMSPORT   MOCLDY    58  51  78 CALM      29.82R
SELINSGROVE    MOCLDY    57  51  80 NW3       29.81R
FT INDIANTOWN  CLOUDY    61  56  84 NE5       29.82R
CAPITAL CITY   MOCLDY    74  49  41 S9        29.81R
HARRISBURG     MOCLDY    66  52  60 S8        29.81R
YORK           PTCLDY    68  53  58 S6        29.83R
$$

PAZ038>040-043-044-047-048-054-055-060>062-067>071-240100-
EASTERN PENNSYLVANIA

CITY           SKY/WX    TMP DP  RH WIND       PRES   REMARKS
SCRANTON       CLOUDY    65  51  60 CALM      29.82R
MOUNT POCONO   CLOUDY    59  51  75 SW7       29.86R
ALLENTOWN      CLOUDY    67  51  56 SW6       29.84R
QUAKERTOWN*    MOCLDY    63  50  63 SW3       29.86R
READING        PTCLDY    66  54  65 S7        29.83R
LANCASTER      PTCLDY    65  54  67 S9        29.83R
COATESVILLE    CLEAR     63  54  72 CALM      29.88R
POTTSTOWN      CLEAR     66  51  58 S7        29.86R
BLUE BELL      CLEAR     63  52  67 SW3       29.85R
DOYLESTOWN     CLEAR     65  52  62 VRB5      29.85R
WILLOW GROVE   NOT AVBL
NORTH PHILA    CLEAR     68  54  60 SW7       29.87R
PHILADELPHIA   PTCLDY    66  52  60 S7        29.86R
$$




USA.gov is the U.S. government's official web portal to all federal, state and local government web resources and services.